Location: Unspecified
(0.0000°N, 0.0000°E)
Time: 23:59:15
(UTC+00:00)

ISS - Visible Passes

Search period start: 18 November 2019 00:00
Search period end: 28 November 2019 00:00
Orbit: 412 x 421 km, 51.6° (Epoch: 19 November)

Date Brightness Start Highest point End Pass type
(mag) Time Alt. Az. Time Alt. Az. Time Alt. Az.
19 Nov -3.7 04:52:51 14° NNW 04:55:35 79° ENE 04:58:56 10° SE visible
20 Nov -2.2 04:07:10 30° NE 04:07:16 30° NE 04:10:16 10° ESE visible
21 Nov -2.0 04:54:21 16° W 04:55:28 19° SW 04:57:55 10° S visible
22 Nov -2.1 04:08:31 27° S 04:08:31 27° S 04:10:21 10° SSE visible
